EW0641 Weather Reports


Display with metric or nautical units.
time (UTC)temp
F
wind
direction
speed
MPH
gust
MPH
rain 1hr
in
rain 24hr
in
rain mn
in
humidity
%
barometer
mb
20260904010037 71 232 0.0 0.0 0.00 0.75 0.02 95 1013.0
20260904004536 71 232 0.0 0.0 0.00 0.75 0.02 95 1013.1
20260904003039 71 232 0.0 0.0 0.00 0.75 0.02 95 1012.9
20260904001535 71 232 0.0 0.0 0.00 0.75 0.02 95 1012.5
20260904000034 71 232 0.0 0.0 0.00 0.75 0.02 95 1012.4
20260903234533 71 232 0.0 0.0 0.00 0.75 0.02 95 1012.6
20260903233032 71 232 0.0 0.0 0.00 0.75 0.02 95 1012.1
20260903231529 71 222 0.0 0.0 0.00 0.75 0.02 95 1012.3
20260903230045 71 221 0.0 0.0 0.01 0.75 0.02 95 1012.5
20260903224530 71 220 0.0 0.0 0.01 0.75 0.02 95 1013.1
20260903223024 71 217 0.0 9.0 0.01 0.75 0.02 95 1013.1
20260903221523 71 331 0.0 0.0 0.01 0.75 0.02 95 1013.3
20260903220021 72 35 0.0 0.0 0.01 0.74 0.01 95 1013.4
20260903214534 71 35 0.0 0.0 0.01 0.74 0.01 94 1013.9
20260903213021 71 35 0.0 0.0 0.01 0.74 0.01 94 1014.4
20260903211516 71 34 0.0 0.0 0.01 0.74 0.01 94 1014.5
20260903210014 71 42 0.0 0.0 0.00 0.73 0.00 93 1015.1
20260903201542 80 108 0.0 0.0 0.00 0.73 0.55 81 1011.0
20260903200043 84 63 0.0 4.0 0.00 0.73 0.55 75 1011.0
20260903194542 85 234 0.0 0.0 0.00 0.73 0.55 74 1010.2
20260903193039 85 234 0.0 0.0 0.00 0.73 0.55 73 1011.0
20260903191537 86 234 0.0 2.0 0.00 0.73 0.55 72 1011.4
20260903190042 86 223 0.0 0.0 0.00 0.73 0.55 71 1011.4
20260903184536 86 224 0.0 0.0 0.00 0.73 0.55 71 1011.7
20260903183033 85 216 0.0 0.0 0.00 0.73 0.55 72 1012.0
20260903181528 83 227 0.0 0.0 0.00 0.73 0.55 74 1011.8
20260903180047 81 210 0.0 0.0 0.00 0.73 0.55 76 1011.9
20260903174525 81 172 0.0 0.0 0.00 0.73 0.55 76 1012.3
20260903173031 80 67 0.0 2.0 0.00 0.73 0.55 76 1012.5
20260903171524 80 99 0.0 4.0 0.00 0.73 0.55 76 1012.6
20260903170027 77 98 0.0 0.0 0.00 0.73 0.55 80 1012.2
20260903164522 75 49 0.0 0.0 0.00 0.73 0.55 86 1013.1
20260903163020 74 78 0.0 0.0 0.00 0.73 0.55 85 1013.9
20260903161527 78 51 5.0 20.0 0.00 0.73 0.55 87 1014.2
20260903160021 79 290 0.0 0.0 0.00 0.73 0.55 90 1013.7
20260903154515 80 291 0.0 0.0 0.00 0.73 0.55 89 1013.7
20260903153017 80 290 0.0 0.0 0.00 0.73 0.55 89 1013.3
20260903151513 81 246 0.0 0.0 0.00 0.73 0.55 88 1012.7
20260903150014 81 246 0.0 0.0 0.00 0.73 0.55 87 1012.1
20260903144515 81 246 0.0 0.0 0.00 0.73 0.55 87 1012.4
20260903143013 81 246 0.0 0.0 0.00 0.73 0.55 87 1012.5
20260903141513 81 246 0.0 0.0 0.00 0.73 0.55 87 1012.3
20260903140009 80 257 0.0 0.0 0.00 0.73 0.55 89 1012.4
20260903134508 80 277 0.0 0.0 0.00 0.73 0.55 91 1012.6
20260903133004 78 277 0.0 0.0 0.00 0.73 0.55 92 1012.7
20260903131607 77 289 0.0 0.0 0.00 0.73 0.55 93 1012.5
20260903130059 76 293 0.0 0.0 0.00 0.73 0.55 94 1012.6
20260903124558 75 301 0.0 0.0 0.00 0.73 0.55 94 1012.9
20260903123054 74 301 0.0 0.0 0.00 0.73 0.55 94 1013.0
20260903121552 73 301 0.0 0.0 0.00 0.73 0.55 94 1013.0
20260903120053 72 301 0.0 0.0 0.00 0.73 0.55 94 1012.9
20260903114603 72 301 0.0 0.0 0.00 0.73 0.55 94 1012.8
20260903113050 71 301 0.0 0.0 0.00 0.73 0.55 94 1012.7
20260903111549 71 301 0.0 0.0 0.00 0.73 0.55 94 1012.7
20260903110056 71 301 0.0 0.0 0.00 0.73 0.55 94 1012.5
20260903104554 71 301 0.0 0.0 0.00 0.73 0.55 94 1012.4
20260903103048 71 301 0.0 0.0 0.00 0.73 0.55 94 1012.3
20260903101547 71 301 0.0 0.0 0.01 0.73 0.55 94 1012.4
20260903100047 71 301 0.0 0.0 0.02 0.73 0.55 94 1012.3
20260903094546 71 301 0.0 0.0 0.03 0.76 0.55 93 1012.3
20260903093054 71 301 0.0 0.0 0.05 0.76 0.55 93 1012.3
20260903091544 71 301 0.0 0.0 0.06 0.75 0.54 93 1012.2
20260903090044 71 301 0.0 0.0 0.09 0.74 0.53 92 1012.1
20260903084543 71 301 0.0 0.0 0.11 0.73 0.52 92 1012.0
20260903083042 71 301 0.0 0.0 0.09 0.71 0.50 91 1012.0
20260903081542 71 301 0.0 0.0 0.07 0.69 0.48 90 1011.9
20260903080041 72 301 0.0 19.0 0.03 0.65 0.44 90 1011.8
20260903074548 72 13 0.0 0.0 0.00 0.62 0.41 92 1012.8
20260903073044 72 320 0.0 0.0 0.00 0.62 0.41 91 1011.5
20260903071540 72 320 0.0 0.0 0.00 0.62 0.41 90 1012.1
20260903070044 72 333 0.0 10.0 0.00 0.62 0.41 90 1012.4
20260903064539 74 5 0.0 0.0 0.01 0.62 0.41 93 1012.9
20260903063038 74 21 0.0 0.0 0.04 0.62 0.41 93 1011.0
20260903061535 74 21 0.0 0.0 0.06 0.62 0.41 93 1011.4
20260903060033 74 21 0.0 0.0 0.10 0.62 0.41 92 1011.6
20260903054535 73 21 0.0 0.0 0.14 0.60 0.39 92 1011.7
20260903053031 73 21 0.0 0.0 0.19 0.57 0.37 91 1011.7
20260903051533 73 21 0.0 0.0 0.22 0.55 0.34 90 1011.6
20260903050029 73 21 0.0 0.0 0.30 0.51 0.30 89 1011.5
20260903044530 73 67 1.0 24.0 0.28 0.46 0.25 86 1012.0
20260903043027 72 304 0.0 11.0 0.28 0.39 0.18 90 1012.3
20260903041520 71 309 0.0 7.0 0.28 0.32 0.11 90 1012.5
20260903040016 72 9 0.0 0.0 0.18 0.21 0.00 90 1012.5
20260903034515 72 5 0.0 5.0 0.15 0.18 0.18 89 1012.9
20260903033017 75 327 2.0 18.0 0.07 0.10 0.10 85 1013.4
20260903031515 86 329 0.0 4.0 0.00 0.03 0.03 76 1011.4
20260903030008 86 251 0.0 5.0 0.00 0.03 0.03 76 1010.4
20260903024508 86 231 0.0 5.0 0.00 0.03 0.03 75 1009.6
20260903023006 87 242 0.0 8.0 0.00 0.03 0.03 74 1009.6
20260903021507 87 232 0.0 4.0 0.00 0.03 0.03 73 1010.4
20260903020004 87 234 0.0 2.0 0.00 0.03 0.03 73 1010.7
20260903014503 88 229 0.0 8.0 0.00 0.03 0.03 72 1010.6
20260903013005 88 239 0.0 4.0 0.00 0.03 0.03 71 1010.5
20260903011502 88 232 0.0 0.0 0.00 0.03 0.03 69 1010.6